Regional Weather Roundup
Issued by NWS

Home | Current Version | Previous Version | Graphics & Text | Print | Product List | Glossary Off
Versions: 1 2 3 4 5 6 7 8 9 10 11 12 13 14 15 16 17 18 19 20 21 22 23 24 25 26 27 28 29 30 31 32 33 34 35 36 37 38 39 40 41 42 43 44 45 46 47 48 49 50

000
ASUS43 KDTX 250901
RWRMI
MICHIGAN HOURLY REGIONAL WEATHER ROUNDUP
NATIONAL WEATHER SERVICE DETROIT/PONTIAC MI
400 AM EST SAT NOV 25 2017

NOTE: "FAIR" INDICATES FEW OR NO CLOUDS BELOW 12,000 FEET WITH NO
SIGNIFICANT WEATHER AND/OR OBSTRUCTION TO VISIBILITY.

MIZ047>049-052>055-059>063-066>070-074>076-081>083-251000-
SOUTHEAST LOWER MICHIGAN

CITY           SKY/WX    TMP DP  RH WIND       PRES   REMARKS
ADRIAN         PTCLDY    48  35  60 W12       29.60R
ALMA           LGT RAIN  49  46  92 W7        29.56R
ANN ARBOR      CLOUDY    46  34  62 SW9       29.56S
BAD AXE        CLOUDY    48  37  64 W10       29.49R
CARO           CLOUDY    50  38  63 SW10      29.50S
DETROIT CITY   CLOUDY    48  32  53 W10       29.55S
DETROIT        LGT RAIN  47  34  60 SW12      29.56S
FLINT          CLOUDY    50  36  58 W10       29.54R
GROSSE ILE     CLOUDY    48  33  56 W9G22     29.56S
HILLSDALE      MOCLDY    46  36  66 W12       29.59S
HOWELL         CLOUDY    49  37  63 W10G17    29.55R

CITY           SKY/WX    TMP DP  RH WIND       PRES   REMARKS
JACKSON        CLOUDY    50  37  61 W13       29.58R
LAMBERTVILLE   CLOUDY    50  34  53 SW14      29.59S
LANSING        CLOUDY    50  44  80 W15       29.57R
LAPEER         CLOUDY    51  35  55 W7        29.52R
MASON          CLOUDY    50  38  62 W6        29.56S
MONROE         CLOUDY    48  33  56 SW13G18   29.56F
MT. CLEMENS    CLOUDY    48  34  59 SW14      29.52S
PONTIAC        MOCLDY    47  34  60 SW6       29.53R
PORT HOPE        N/A     50  38  63 VRB7      29.46R
PORT HURON     DRIZZLE   48  32  53 SW6       29.52S
TRI CITIES     CLOUDY    50  44  80 W9        29.52R
MIDLAND        LGT RAIN  49  43  80 NW12G18   29.52R
TROY           CLOUDY    47  33  57 SW7       29.55F
SAGINAW HB     CLOUDY    50  39  66 W8        29.51R
$$
MIZ043>046-050>051-056>058-064>065-071>073-077>080-251000-
SOUTHWEST LOWER MICHIGAN

CITY           SKY/WX    TMP DP  RH WIND       PRES   REMARKS
BATTLE CREEK   LGT RAIN  49  46  90 W10       29.62R
BENTON HARBOR  PTCLDY    49  42  77 NW9G21    29.67R
BIG RAPIDS     CLOUDY    45  40  84 NW14G22   29.57R
COLDWATER      CLOUDY    49  38  66 W7        29.61S
FREMONT        CLOUDY    46  41  85 NW13G24   29.61R
HOLLAND        CLOUDY    48  41  76 NW14G24   29.65R
GRAND RAPIDS   CLOUDY    49  45  86 NW18G26   29.61R
IONIA          DRIZZLE   49  46  92 W14       29.57R
KALAMAZOO      CLOUDY    50  44  80 NW13      29.63R
LUDINGTON      CLOUDY    44  38  78 NW8       29.61R
MARSHALL       RAIN      48  41  77 W9G16     29.59S
MOUNT PLEASANT LGT RAIN  47  43  88 NW7       29.55R
MUSKEGON       CLOUDY    48  38  68 NW10G23   29.64R
SOUTH HAVEN    CLEAR     49  42  77 NW14G26   29.66R
$$
MIZ016>042-251000-
NORTHERN LOWER MICHIGAN

CITY           SKY/WX    TMP DP  RH WIND       PRES   REMARKS
ALPENA         CLOUDY    44  43  96 NW6G16    29.50R
BEAVER ISLAND  CLOUDY    41  35  81 W9        29.55R
BELLAIRE       LGT RAIN  43  40  89 NW9       29.56R
CADILLAC       CLOUDY    42  40  93 NW13      29.56R
CHARLEVOIX     CLOUDY    43  37  78 NW17G25   29.58R
FRANKFORT      CLOUDY    44  34  67 NW12G17   29.60R
GAYLORD        CLOUDY    40  36  86 NW9G17    29.52R WCI  34
GRAYLING       MIX PCPN  41  37  86 NW13G18   29.54R
HARBOR SPRINGS DRIZZLE   41  37  84 W12       29.54R
HOUGHTON LAKE  LGT RAIN  43  41  93 NW10      29.54R FOG
MANISTEE       CLOUDY    44  37  76 NW10      29.60R
OSCODA         CLOUDY    46  38  72 NW15      29.49R
ROGERS CITY    MIX PCPN  43  40  91 N15G21    29.51R
TRAVERSE CITY  CLOUDY    44  36  73 NW13G21   29.57R
$$
MIZ007>008-015-251000-
EASTERN UPPER MICHIGAN

CITY           SKY/WX    TMP DP  RH WIND       PRES   REMARKS
KINROSS        CLOUDY    37  35  92 NW14G20   29.48S WCI  28
MACKINAC ISLAN CLOUDY    40  36  86 NW10      29.51R WCI  33
NEWBERRY       CLOUDY    36  35  96 W7        29.51R WCI  31
S. S. MARIE    MOCLDY    41  32  70 NW15G24   29.46S
MUNISING         N/A     41  32  70 VRB6      29.53S
$$
MIZ004>006-011>014-085-251000-
CENTRAL UPPER MICHIGAN

CITY           SKY/WX    TMP DP  RH WIND       PRES   REMARKS
MANISTIQUE     CLEAR     34  30  83 W3        29.54S
ESCANABA       CLOUDY    32  30  92 W6        29.58R WCI  26
MENOMINEE      CLOUDY    39  31  72 W5        29.62R
SAWYER-GWINN   CLOUDY    36  30  80 W7        29.55R WCI  30
$$
MIZ001>003-009>011-084-251000-
WESTERN UPPER MICHIGAN

CITY           SKY/WX    TMP DP  RH WIND       PRES   REMARKS
IRON MOUNTAIN  CLOUDY    38  30  73 W8        29.57R WCI  32
HOUGHTON       CLOUDY    37  28  70 NW23G36   29.53R WCI  26
COPPER HARBOR    N/A     39  29  67 N24G30    29.52R WCI  28
IRONWOOD       CLOUDY    35  26  69 NW20G32   29.64R WCI  24
$$

ABBREVIATIONS USED IN REMARKS
   TC - TEMPERATURE IN CELSIUS
  WCI - WIND CHILL INDEX
   HX - HEAT INDEX
  VSB - VISIBILITY





USA.gov is the U.S. government's official web portal to all federal, state and local government web resources and services.